Fes-Sais, Morocco

12:18 PM WEST on April 26, 2018 (GMT +0100)
Fes-Sais

Weather History for GMFF - June, 2013

Change the Weather History Date:

Tuesday, June 18, 2013

  Actual Average Record
Temperature  
Mean Temperature 62 °F -  
Max Temperature 72 °F 89 °F 108 °F (2017)
Min Temperature 53 °F 60 °F 52 °F (2016)
Degree Days  
Heating Degree Days 2    
Growing Degree Days 12 (Base 50)    
Moisture  
Dew Point 46 °F    
Average Humidity 57    
Maximum Humidity 82    
Minimum Humidity 28    
Precipitation  
Precipitation 0.00 in 0.02 in - ()
Sea Level Pressure  
Sea Level Pressure 30.08 in    
Wind  
Wind Speed 8 mph ()    
Max Wind Speed 12 mph    
Max Gust Speed -    
Visibility 6.1 miles    
Events      
Averages and records for this station are not official NWS values.
T = Trace of Precipitation, MM = Missing Value Source: Averaged Metar Reports

Daily Weather History Graph

Daily Weather History Graph

Search for Another Location

Airport or City:

Astronomy

Jun. 18, 2013 Rise Set
Actual Time 6:08 AM WEST 8:33 PM WEST
Civil Twilight 5:39 AM WEST 9:02 PM WEST
Nautical Twilight 5:03 AM WEST 9:38 PM WEST
Astronomical Twilight 4:24 AM WEST 10:17 PM WEST
Moon 3:13 PM WEST (6/18) 1:56 AM WEST (6/18)
Length of Visible Light 15h 23m
Length of Day
14h 24m
Waxing Gibbous, 68% of the Moon is Illuminated
Jun 18
Waxing Gibbous
Jun 23
Full
Jun 30
Last Quarter
Jul 8
New
Jul 16
First Quarter

Hourly Weather History & Observations

Time (WEST) Temp. Dew Point Humidity Pressure Visibility Wind Dir Wind Speed Gust Speed Precip Events Conditions
12:00 AM 60.8 °F 53.6 °F 77% 30.09 in 6.2 mi NW 9.2 mph - N/A   Mostly Cloudy
1:00 AM 59 °F 53 °F 73% 27.13 in 6 mi WNW 11.5 mph - -   Mostly Cloudy
1:00 AM 59.0 °F 53.6 °F 82% 30.09 in 6.2 mi WNW 11.5 mph - N/A   Mostly Cloudy
3:00 AM 55.4 °F 50.0 °F 82% 30.06 in 6.2 mi WNW 10.4 mph - N/A   Scattered Clouds
4:00 AM 55 °F 48 °F 71% 30.09 in 6 mi NW 8.1 mph - -   Mostly Cloudy
4:00 AM 55.4 °F 48.2 °F 77% 30.06 in 6.2 mi NW 8.1 mph - N/A   Scattered Clouds
5:00 AM 55.4 °F 48.2 °F 77% 30.06 in 6.2 mi WNW 8.1 mph - N/A   Scattered Clouds
6:00 AM 53.6 °F 46.4 °F 77% 30.09 in 6.2 mi WNW 6.9 mph - N/A   Scattered Clouds
7:00 AM 55 °F 48 °F 71% 30.11 in 6 mi WNW 5.8 mph - -   Mostly Cloudy
7:00 AM 55.4 °F 48.2 °F 77% 30.09 in 6.2 mi WNW 5.8 mph - N/A   Scattered Clouds
8:00 AM 55.4 °F 46.4 °F 72% 30.09 in 6.2 mi West 8.1 mph - N/A   Scattered Clouds
9:00 AM 55.4 °F 46.4 °F 72% 30.09 in 6.2 mi West 9.2 mph - N/A   Mostly Cloudy
10:00 AM 59.0 °F 44.6 °F 59% 30.12 in 6.2 mi West 10.4 mph - N/A   Mostly Cloudy
11:00 AM 60.8 °F 44.6 °F 55% 30.12 in 6.2 mi West 9.2 mph - N/A   Mostly Cloudy
12:00 PM 68.0 °F 46.4 °F 46% 30.09 in 6.2 mi West 9.2 mph - N/A   Mostly Cloudy
1:00 PM 67 °F 44 °F 32% 30.05 in 6 mi NW 6.9 mph - -   Mostly Cloudy
1:00 PM 69.8 °F 44.6 °F 40% 30.09 in 6.2 mi NW 8.1 mph - N/A   Mostly Cloudy
2:00 PM 69.8 °F 42.8 °F 38% 30.06 in 6.2 mi NW 10.4 mph - N/A   Mostly Cloudy
4:00 PM 71 °F 45 °F 28% 30.00 in 6 mi WNW 9.2 mph - -   Partly Cloudy
4:00 PM 71.6 °F 44.6 °F 38% 30.06 in 6.2 mi WNW 10.4 mph - N/A   Scattered Clouds
5:00 PM 71.6 °F 42.8 °F 35% 30.06 in 6.2 mi WNW 9.2 mph - N/A   Scattered Clouds
6:00 PM 71.6 °F 41.0 °F 33% 30.04 in 6.2 mi WNW 10.4 mph - N/A   Partly Cloudy
7:00 PM 69 °F 44 °F 29% 30.00 in 6 mi NW 10.4 mph - -   Scattered Clouds
7:00 PM 69.8 °F 44.6 °F 40% 30.06 in 6.2 mi NW 10.4 mph - N/A   Partly Cloudy
8:00 PM 66.2 °F 42.8 °F 43% 30.06 in - WNW 8.1 mph - N/A   Clear
9:00 PM 60.8 °F 42.8 °F 52% 30.09 in - NW 9.2 mph - N/A   Clear
10:00 PM 59 °F 47 °F 53% 30.12 in 6 mi WNW 9.2 mph - -  
10:00 PM 59.0 °F 46.4 °F 63% 30.12 in - WNW 9.2 mph - N/A   Clear
11:00 PM 55.4 °F 44.6 °F 67% 30.15 in - WNW 5.8 mph - N/A   Clear